Radiosonde details



Informationen :

Serial : D26013356
Type : Graw DFM
Frequency : 403.210MHz
Launchsite : -
Nearest town : Jackpot, US (42.9km)

Altitude (Max) : 31907m at 2026-09-03 18:34:31
Speed (Max) : 133km/h at altitude 9084m

Average speed : 67km/h
Average ascent rate : 6m/s
Average descent rate : -11m/s
Ascent rate (Max) : 9.1m/s
Descent rate (Max): -38.9m/s

First frame :
KE7DJD at 2026-09-03 18:31:24 at altitude 30788m (OG: 30746m)
Last frame :
KE7DJD at 2026-09-03 19:10:13 at altitude 8126m (OG: 8084m)

Flighttime : 38m49s
Ascent time : 3m7s
Descent time : 35m42s
Uptime : -
Killtimer : -

Distance (Straight line distance): 37km

Distance (Route):


Frames : 109


Measurement :

Temperature : -17.5°C
Humidity : 0%
Pressure : 0hPa


Vertical profile (SkewT) :


Elevation profile :



Receiving stations :


Receiver Frames First received Last received
KE7DJD 109 2026-09-03 18:31:24 2026-09-03 19:10:13

Share per receiver :



All frames :


Receiver Date Latitude Longitude Direction Speed Altitude Climb Temperature Humidity Pressure Voltage Killtimer Uptime BKT XDATA
KE7DJD2026-09-03 19:10:1341.60433-114.7717748°115km/h8126m-6.2m/s-17.5°C0%0hPa0V00:00:0000:00:0000:00:00
KE7DJD2026-09-03 19:09:4741.59869-114.7788446°119km/h8283m-6.3m/s-19.0°C0%0hPa0V00:00:0000:00:0000:00:00
KE7DJD2026-09-03 19:09:1841.59247-114.7869044°120km/h8455m-6.2m/s-20.8°C0%0hPa0V00:00:0000:00:0000:00:00
KE7DJD2026-09-03 19:08:5741.58784-114.7925943°119km/h8578m-6.0m/s-22.0°C0%0hPa0V00:00:0000:00:0000:00:00
KE7DJD2026-09-03 19:08:3641.58310-114.7981442°119km/h8700m-5.7m/s-23.1°C0%0hPa0V00:00:0000:00:0000:00:00
KE7DJD2026-09-03 19:08:1241.57762-114.8041238°122km/h8836m-5.9m/s-24.3°C0%0hPa0V00:00:0000:00:0000:00:00
KE7DJD2026-09-03 19:07:5141.57242-114.8095639°126km/h8958m-5.9m/s-25.3°C0%0hPa0V00:00:0000:00:0000:00:00
KE7DJD2026-09-03 19:07:3141.56699-114.8149937°131km/h9084m-6.0m/s-26.3°C0%0hPa0V00:00:0000:00:0000:00:00
KE7DJD2026-09-03 19:07:1041.56173-114.8203139°126km/h9207m-6.1m/s-27.3°C0%0hPa0V00:00:0000:00:0000:00:00
KE7DJD2026-09-03 19:06:5041.55669-114.8263445°130km/h9334m-6.3m/s-28.1°C0%0hPa0V00:00:0000:00:0000:00:00
KE7DJD2026-09-03 19:06:2841.55179-114.8326045°130km/h9458m-5.8m/s-29.2°C0%0hPa0V00:00:0000:00:0000:00:00
KE7DJD2026-09-03 19:06:0841.54726-114.8385546°124km/h9574m-6.1m/s-30.4°C0%0hPa0V00:00:0000:00:0000:00:00
KE7DJD2026-09-03 19:05:4741.54260-114.8448447°124km/h9698m-5.7m/s-31.6°C0%0hPa0V00:00:0000:00:0000:00:00
KE7DJD2026-09-03 19:05:2741.53842-114.8507646°115km/h9814m-5.6m/s-32.6°C0%0hPa0V00:00:0000:00:0000:00:00
KE7DJD2026-09-03 19:05:0741.53409-114.8566446°117km/h9932m-5.8m/s-32.9°C0%0hPa0V00:00:0000:00:0000:00:00
KE7DJD2026-09-03 19:04:4641.52982-114.8625047°124km/h10049m-5.8m/s-33.4°C0%0hPa0V00:00:0000:00:0000:00:00
KE7DJD2026-09-03 19:04:2641.52528-114.8684844°120km/h10171m-5.8m/s-34.0°C0%0hPa0V00:00:0000:00:0000:00:00
KE7DJD2026-09-03 19:04:0541.52092-114.8741145°117km/h10288m-5.9m/s-35.2°C0%0hPa0V00:00:0000:00:0000:00:00
KE7DJD2026-09-03 19:03:4541.51622-114.8798444°119km/h10410m-5.9m/s-36.2°C0%0hPa0V00:00:0000:00:0000:00:00
KE7DJD2026-09-03 19:03:2441.51166-114.8851943°122km/h10527m-5.9m/s-37.4°C0%0hPa0V00:00:0000:00:0000:00:00
KE7DJD2026-09-03 19:03:0441.50686-114.8907843°120km/h10650m-5.9m/s-38.5°C0%0hPa0V00:00:0000:00:0000:00:00
KE7DJD2026-09-03 19:02:2341.49758-114.9010939°115km/h10893m-6.1m/s-40.0°C0%0hPa0V00:00:0000:00:0000:00:00
KE7DJD2026-09-03 19:02:0241.49289-114.9059641°119km/h11012m-6.2m/s-41.0°C0%0hPa0V00:00:0000:00:0000:00:00
KE7DJD2026-09-03 19:01:4241.48807-114.9112343°117km/h11138m-6.0m/s-41.9°C0%0hPa0V00:00:0000:00:0000:00:00
KE7DJD2026-09-03 19:01:2141.48363-114.9165045°117km/h11258m-5.9m/s-42.6°C0%0hPa0V00:00:0000:00:0000:00:00
KE7DJD2026-09-03 19:01:0141.47921-114.9224148°119km/h11387m-6.2m/s-43.6°C0%0hPa0V00:00:0000:00:0000:00:00
KE7DJD2026-09-03 19:00:4041.47514-114.9285349°113km/h11517m-6.0m/s-44.7°C0%0hPa0V00:00:0000:00:0000:00:00
KE7DJD2026-09-03 19:00:1941.47131-114.9340146°115km/h11641m-6.1m/s-45.3°C0%0hPa0V00:00:0000:00:0000:00:00
KE7DJD2026-09-03 18:59:5841.46697-114.9393844°113km/h11770m-5.9m/s-45.8°C0%0hPa0V00:00:0000:00:0000:00:00
KE7DJD2026-09-03 18:59:3841.46280-114.9442842°113km/h11893m-6.1m/s-46.9°C0%0hPa0V00:00:0000:00:0000:00:00
KE7DJD2026-09-03 18:59:1841.45835-114.9496345°117km/h12022m-5.9m/s-47.7°C0%0hPa0V00:00:0000:00:0000:00:00
KE7DJD2026-09-03 18:58:5741.45433-114.9552548°113km/h12143m-5.8m/s-47.3°C0%0hPa0V00:00:0000:00:0000:00:00
KE7DJD2026-09-03 18:58:3741.45050-114.9609750°108km/h12269m-6.1m/s-46.6°C0%0hPa0V00:00:0000:00:0000:00:00
KE7DJD2026-09-03 18:58:1641.44678-114.9662352°110km/h12391m-6.3m/s-45.7°C0%0hPa0V00:00:0000:00:0000:00:00
KE7DJD2026-09-03 18:57:5641.44327-114.9726754°111km/h12521m-6.5m/s-45.1°C0%0hPa0V00:00:0000:00:0000:00:00
KE7DJD2026-09-03 18:57:3541.44015-114.9783656°100km/h12649m-6.3m/s-44.9°C0%0hPa0V00:00:0000:00:0000:00:00
KE7DJD2026-09-03 18:57:1541.43759-114.9839362°91km/h12789m-6.9m/s-44.3°C0%0hPa0V00:00:0000:00:0000:00:00
KE7DJD2026-09-03 18:56:5341.43515-114.9892657°89km/h12937m-7.4m/s-45.0°C0%0hPa0V00:00:0000:00:0000:00:00
KE7DJD2026-09-03 18:56:3241.43268-114.9940557°80km/h13092m-7.5m/s-45.9°C0%0hPa0V00:00:0000:00:0000:00:00
KE7DJD2026-09-03 18:56:1241.43004-114.9984950°82km/h13249m-7.3m/s-47.1°C0%0hPa0V00:00:0000:00:0000:00:00
KE7DJD2026-09-03 18:55:5141.42705-115.0029251°88km/h13409m-7.6m/s-48.4°C0%0hPa0V00:00:0000:00:0000:00:00
KE7DJD2026-09-03 18:55:3041.42425-115.0074654°82km/h13565m-7.6m/s-49.2°C0%0hPa0V00:00:0000:00:0000:00:00
KE7DJD2026-09-03 18:55:1041.42159-115.0123061°82km/h13732m-7.9m/s-48.8°C0%0hPa0V00:00:0000:00:0000:00:00
KE7DJD2026-09-03 18:54:4941.41962-115.0171561°82km/h13889m-7.7m/s-49.4°C0%0hPa0V00:00:0000:00:0000:00:00
KE7DJD2026-09-03 18:54:2941.41712-115.0219854°86km/h14052m-7.5m/s-49.7°C0%0hPa0V00:00:0000:00:0000:00:00
KE7DJD2026-09-03 18:54:0841.41401-115.0269953°91km/h14213m-7.7m/s-49.9°C0%0hPa0V00:00:0000:00:0000:00:00
KE7DJD2026-09-03 18:53:4741.41112-115.0324357°108km/h14368m-7.8m/s-50.1°C0%0hPa0V00:00:0000:00:0000:00:00
KE7DJD2026-09-03 18:53:2741.40829-115.0388564°108km/h14531m-7.8m/s-50.1°C0%0hPa0V00:00:0000:00:0000:00:00
KE7DJD2026-09-03 18:53:0641.40635-115.0452372°99km/h14683m-7.5m/s-51.2°C0%0hPa0V00:00:0000:00:0000:00:00
KE7DJD2026-09-03 18:52:4641.40497-115.0512074°80km/h14844m-7.7m/s-51.3°C0%0hPa0V00:00:0000:00:0000:00:00
KE7DJD2026-09-03 18:52:2441.40369-115.0562468°69km/h15009m-7.9m/s-52.3°C0%0hPa0V00:00:0000:00:0000:00:00
KE7DJD2026-09-03 18:51:4241.40126-115.0640669°47km/h15355m-8.5m/s-54.3°C0%0hPa0V00:00:0000:00:0000:00:00
KE7DJD2026-09-03 18:51:2241.39974-115.0673559°64km/h15533m-8.6m/s-54.6°C0%0hPa0V00:00:0000:00:0000:00:00
KE7DJD2026-09-03 18:51:0141.39785-115.0713161°80km/h15707m-8.7m/s-55.7°C0%0hPa0V00:00:0000:00:0000:00:00
KE7DJD2026-09-03 18:50:4141.39575-115.0763667°89km/h15893m-9.1m/s-55.0°C0%0hPa0V00:00:0000:00:0000:00:00
KE7DJD2026-09-03 18:50:2041.39437-115.0816573°66km/h16076m-9.2m/s-54.6°C0%0hPa0V00:00:0000:00:0000:00:00
KE7DJD2026-09-03 18:50:0041.39346-115.0859766°51km/h16275m-10.0m/s-53.7°C0%0hPa0V00:00:0000:00:0000:00:00
KE7DJD2026-09-03 18:49:3941.39200-115.0895859°60km/h16482m-9.8m/s-53.0°C0%0hPa0V00:00:0000:00:0000:00:00
KE7DJD2026-09-03 18:48:5841.38839-115.0960461°57km/h16879m-9.8m/s-51.0°C0%0hPa0V00:00:0000:00:0000:00:00
KE7DJD2026-09-03 18:48:3841.38680-115.0985355°42km/h17088m-9.9m/s-49.7°C0%0hPa0V00:00:0000:00:0000:00:00
KE7DJD2026-09-03 18:48:1741.38546-115.1005649°35km/h17298m-9.9m/s-49.4°C0%0hPa0V00:00:0000:00:0000:00:00
KE7DJD2026-09-03 18:47:5641.38426-115.1021624°29km/h17518m-11.1m/s-48.5°C0%0hPa0V00:00:0000:00:0000:00:00
KE7DJD2026-09-03 18:47:3641.38318-115.1027326°26km/h17736m-11.0m/s-48.8°C0%0hPa0V00:00:0000:00:0000:00:00
KE7DJD2026-09-03 18:47:1541.38198-115.1038643°29km/h17964m-11.1m/s-49.0°C0%0hPa0V00:00:0000:00:0000:00:00
KE7DJD2026-09-03 18:46:5441.38058-115.1053157°31km/h18205m-11.1m/s-49.9°C0%0hPa0V00:00:0000:00:0000:00:00
KE7DJD2026-09-03 18:46:3341.37966-115.1071566°31km/h18443m-11.3m/s-50.1°C0%0hPa0V00:00:0000:00:0000:00:00
KE7DJD2026-09-03 18:46:1341.37901-115.1092067°29km/h18679m-11.2m/s-50.8°C0%0hPa0V00:00:0000:00:0000:00:00
KE7DJD2026-09-03 18:45:5241.37749-115.1102020°33km/h18931m-11.8m/s-49.9°C0%0hPa0V00:00:0000:00:0000:00:00
KE7DJD2026-09-03 18:45:3141.37574-115.1108218°35km/h19187m-12.2m/s-48.6°C0%0hPa0V00:00:0000:00:0000:00:00
KE7DJD2026-09-03 18:45:1041.37456-115.1115326°18km/h19436m-12.4m/s-48.4°C0%0hPa0V00:00:0000:00:0000:00:00
KE7DJD2026-09-03 18:44:5041.37423-115.11118317°16km/h19705m-12.6m/s-48.9°C0%0hPa0V00:00:0000:00:0000:00:00
KE7DJD2026-09-03 18:44:2941.37361-115.11018296°27km/h19964m-13.0m/s-49.6°C0%0hPa0V00:00:0000:00:0000:00:00
KE7DJD2026-09-03 18:44:0941.37266-115.10912343°24km/h20243m-13.2m/s-49.0°C0%0hPa0V00:00:0000:00:0000:00:00
KE7DJD2026-09-03 18:43:2641.37132-115.10853283°24km/h20820m-13.9m/s-48.0°C0%0hPa0V00:00:0000:00:0000:00:00
KE7DJD2026-09-03 18:43:0641.37067-115.10740312°24km/h21124m-14.7m/s-47.9°C0%0hPa0V00:00:0000:00:0000:00:00
KE7DJD2026-09-03 18:42:4541.37023-115.10654282°26km/h21435m-15.0m/s-46.9°C0%0hPa0V00:00:0000:00:0000:00:00
KE7DJD2026-09-03 18:42:2441.36992-115.10561314°15km/h21741m-15.1m/s-48.3°C0%0hPa0V00:00:0000:00:0000:00:00
KE7DJD2026-09-03 18:42:0441.36914-115.10455329°24km/h22070m-15.6m/s-47.7°C0%0hPa0V00:00:0000:00:0000:00:00
KE7DJD2026-09-03 18:41:4341.36864-115.10364315°13km/h22387m-16.2m/s-48.6°C0%0hPa0V00:00:0000:00:0000:00:00
KE7DJD2026-09-03 18:41:2341.36838-115.10216275°18km/h22730m-16.6m/s-47.9°C0%0hPa0V00:00:0000:00:0000:00:00
KE7DJD2026-09-03 18:41:0241.36846-115.10135219°15km/h23069m-17.2m/s-47.5°C0%0hPa0V00:00:0000:00:0000:00:00
KE7DJD2026-09-03 18:40:4241.36843-115.10059272°7km/h23434m-17.4m/s-47.1°C0%0hPa0V00:00:0000:00:0000:00:00
KE7DJD2026-09-03 18:40:2141.36870-115.10004302°13km/h23788m-18.7m/s-45.4°C0%0hPa0V00:00:0000:00:0000:00:00
KE7DJD2026-09-03 18:40:0141.36799-115.09991320°5km/h24176m-18.1m/s-44.7°C0%0hPa0V00:00:0000:00:0000:00:00
KE7DJD2026-09-03 18:39:4041.36852-115.09989185°18km/h24549m-18.6m/s-44.5°C0%0hPa0V00:00:0000:00:0000:00:00
KE7DJD2026-09-03 18:39:2041.36972-115.09888213°27km/h24956m-20.2m/s-44.6°C0%0hPa0V00:00:0000:00:0000:00:00
KE7DJD2026-09-03 18:38:5941.37059-115.09775234°40km/h25378m-20.5m/s-45.8°C0%0hPa0V00:00:0000:00:0000:00:00
KE7DJD2026-09-03 18:38:3841.37090-115.09566261°31km/h25791m-21.2m/s-45.2°C0%0hPa0V00:00:0000:00:0000:00:00
KE7DJD2026-09-03 18:38:1741.37117-115.09338255°24km/h26244m-21.7m/s-45.3°C0%0hPa0V00:00:0000:00:0000:00:00
KE7DJD2026-09-03 18:37:5741.37130-115.09203328°11km/h26685m-23.6m/s-44.2°C0%0hPa0V00:00:0000:00:0000:00:00
KE7DJD2026-09-03 18:37:3641.37149-115.09097274°31km/h27172m-23.6m/s-42.2°C0%0hPa0V00:00:0000:00:0000:00:00
KE7DJD2026-09-03 18:37:1641.37103-115.08879304°37km/h27662m-24.4m/s-40.6°C0%0hPa0V00:00:0000:00:0000:00:00
KE7DJD2026-09-03 18:36:5641.37027-115.08744304°27km/h28184m-25.4m/s-39.4°C0%0hPa0V00:00:0000:00:0000:00:00
KE7DJD2026-09-03 18:36:3541.36916-115.08644330°22km/h28728m-26.8m/s-38.7°C0%0hPa0V00:00:0000:00:0000:00:00
KE7DJD2026-09-03 18:36:1541.36830-115.08575233°5km/h29271m-27.8m/s-37.9°C0%0hPa0V00:00:0000:00:0000:00:00
KE7DJD2026-09-03 18:35:5441.36848-115.08439278°38km/h29845m-28.8m/s-37.4°C0%0hPa0V00:00:0000:00:0000:00:00
KE7DJD2026-09-03 18:35:3441.36787-115.08273305°26km/h30445m-28.1m/s-37.5°C0%0hPa0V00:00:0000:00:0000:00:00
KE7DJD2026-09-03 18:35:1341.36745-115.08137268°33km/h31021m-29.9m/s-35.1°C0%0hPa0V00:00:0000:00:0000:00:00
KE7DJD2026-09-03 18:34:5141.36612-115.08125310°4km/h31696m-38.9m/s-33.7°C0%0hPa0V00:00:0000:00:0000:00:00
KE7DJD2026-09-03 18:34:3141.36610-115.08034102°5km/h31907m7.2m/s-33.0°C0%0hPa0V00:00:0000:00:0000:00:00
KE7DJD2026-09-03 18:34:1041.36593-115.0802554°29km/h31789m2.3m/s-33.7°C0%0hPa0V00:00:0000:00:0000:00:00
KE7DJD2026-09-03 18:33:4941.36531-115.08015338°18km/h31676m9.1m/s-34.6°C0%0hPa0V00:00:0000:00:0000:00:00
KE7DJD2026-09-03 18:33:2941.36425-115.08019291°31km/h31554m4.7m/s-34.8°C0%0hPa0V00:00:0000:00:0000:00:00
KE7DJD2026-09-03 18:33:0841.36312-115.0794518°7km/h31435m7.0m/s-35.5°C0%0hPa0V00:00:0000:00:0000:00:00
KE7DJD2026-09-03 18:32:4841.36199-115.0790633°29km/h31309m3.0m/s-35.8°C0%0hPa0V00:00:0000:00:0000:00:00
KE7DJD2026-09-03 18:32:2741.36084-115.07847285°27km/h31184m8.2m/s-35.3°C0%0hPa0V00:00:0000:00:0000:00:00
KE7DJD2026-09-03 18:32:0541.35999-115.0771939°27km/h31044m7.2m/s-34.6°C0%0hPa0V00:00:0000:00:0000:00:00
KE7DJD2026-09-03 18:31:4441.35977-115.07606256°11km/h30919m5.6m/s-35.2°C0%0hPa0V00:00:0000:00:0000:00:00
KE7DJD2026-09-03 18:31:2441.35956-115.07470300°44km/h30788m4.0m/s-35.7°C0%0hPa0V00:00:0000:00:0000:00:00


GPX KML Map

© wettersonde.net (DO2JMG) - 2026  -  -